START_TIME,STEP,MOV.,M29,t_acc.,H22,t_acc.,H26,t_acc.,H30,t_acc.
1979-03-07 00:00:29.570 ,2,1,0.,24.0,0.,24.0,0.,24.0,0.,24.0
1979-03-07 00:00:53.570 ,1,1,0.,24.0,0.,24.0,0.,24.0,0.,24.0
1979-03-07 00:01:17.570 ,5,1,0.,24.0,0.,24.0,0.,24.0,0.,24.0
1979-03-07 00:01:41.570 ,6,1,0.,24.0,0.,24.0,0.,24.0,0.,24.0
1979-03-07 00:02:05.570 ,2,1,0.,24.0,0.,24.0,0.,24.0,0.,24.0
1979-03-07 00:02:29.570 ,1,1,0.,24.0,0.,24.0,0.,24.0,0.,24.0
1979-03-07 00:02:53.570 ,5,1,0.,24.0,0.,24.0,0.,24.0,0.,24.0
1979-03-07 00:03:17.570 ,6,1,0.,24.0,0.,24.0,0.,24.0,0.,24.0
1979-03-07 00:03:41.570 ,2,1,0.,24.0,0.,24.0,0.,24.0,0.,24.0
1979-03-07 00:04:05.570 ,1,1,0.,24.0,0.,24.0,0.,24.0,0.,24.0
1979-03-07 00:04:29.570 ,5,1,0.,24.0,0.,24.0,0.,24.0,0.,24.0
1979-03-07 00:04:53.570 ,6,1,0.,24.0,0.,24.0,0.,24.0,0.,24.0
1979-03-07 00:05:17.570 ,2,1,0.,24.0,0.,24.0,0.,24.0,0.,24.0
1979-03-07 00:05:41.570 ,1,1,0.,24.0,0.,24.0,0.,24.0,0.,24.0
1979-03-07 00:06:05.570 ,5,1,0.,24.0,0.,24.0,0.,24.0,0.,24.0
1979-03-07 00:06:29.570 ,6,1,0.,24.0,0.,24.0,0.,24.0,0.,24.0
1979-03-07 00:06:53.570 ,2,1,0.,24.0,0.,24.0,0.,24.0,0.,24.0
1979-03-07 00:07:17.570 ,1,1,0.,24.0,0.,24.0,0.,24.0,0.,24.0
1979-03-07 00:07:41.570 ,5,1,0.,24.0,0.,24.0,0.,24.0,0.,24.0
1979-03-07 00:08:05.570 ,6,1,0.,24.0,0.,24.0,0.,24.0,0.,24.0
1979-03-07 00:08:29.570 ,2,1,0.,24.0,0.,24.0,0.,24.0,0.,24.0
1979-03-07 00:08:53.570 ,1,1,0.,24.0,0.,24.0,0.,24.0,0.,24.0
1979-03-07 00:09:17.570 ,5,1,0.,24.0,0.,24.0,0.,24.0,0.,24.0
1979-03-07 00:09:41.570 ,6,1,0.,24.0,0.,24.0,0.,24.0,0.,24.0
1979-03-07 00:10:05.570 ,2,1,0.,24.0,0.,24.0,0.,24.0,0.,24.0
1979-03-07 00:10:29.570 ,1,1,0.,24.0,0.,24.0,0.,24.0,0.,24.0
1979-03-07 00:10:53.570 ,5,1,0.,24.0,0.,24.0,0.,24.0,0.,24.0
1979-03-07 00:11:17.570 ,6,1,0.,24.0,0.,24.0,0.,24.0,0.,24.0
1979-03-07 00:11:41.570 ,2,1,0.,24.0,0.,24.0,0.,24.0,0.,24.0
1979-03-07 00:12:05.570 ,1,1,0.,24.0,0.,24.0,0.,24.0,0.,24.0
1979-03-07 00:12:29.570 ,5,1,0.,24.0,0.,24.0,0.,24.0,0.,24.0
1979-03-07 00:12:53.570 ,6,1,0.,24.0,0.,24.0,0.,24.0,0.,24.0
1979-03-07 00:13:17.570 ,2,1,0.,24.0,0.,24.0,0.,24.0,0.,24.0
1979-03-07 00:13:41.570 ,1,1,0.,24.0,0.,24.0,0.,24.0,0.,24.0
1979-03-07 00:14:05.570 ,5,1,0.,24.0,0.,24.0,0.,24.0,0.,24.0
1979-03-07 00:14:29.570 ,6,1,0.,24.0,0.,24.0,0.,24.0,0.,24.0
1979-03-07 00:14:53.570 ,2,1,0.,24.0,0.,24.0,0.,24.0,0.,24.0
1979-03-07 00:15:17.570 ,1,1,0.,24.0,0.,24.0,0.,24.0,0.,24.0
1979-03-07 00:15:41.570 ,5,1,0.,24.0,0.,24.0,0.,24.0,0.,24.0
1979-03-07 00:16:05.570 ,6,1,0.,24.0,0.,24.0,0.,24.0,0.,24.0
1979-03-07 00:16:29.570 ,2,1,0.,24.0,0.,24.0,0.,24.0,0.,24.0
1979-03-07 00:16:53.570 ,1,1,0.,24.0,0.,24.0,0.,24.0,0.,24.0
1979-03-07 00:17:17.570 ,5,1,0.,24.0,0.,24.0,0.,24.0,0.,24.0
1979-03-07 00:17:41.570 ,6,1,0.,24.0,0.,24.0,0.,24.0,0.,24.0
1979-03-07 00:18:05.570 ,2,1,0.,24.0,0.,24.0,0.,24.0,0.,24.0
1979-03-07 00:18:29.570 ,1,1,0.,24.0,0.,24.0,0.,24.0,0.,24.0
1979-03-07 00:18:53.570 ,5,1,0.,24.0,0.,24.0,0.,24.0,0.,24.0
1979-03-07 00:19:17.570 ,6,1,0.,24.0,0.,24.0,0.,24.0,0.,24.0
1979-03-07 00:19:41.570 ,2,1,0.,24.0,0.,24.0,0.,24.0,0.,24.0
1979-03-07 00:20:05.570 ,1,1,0.,24.0,0.,24.0,0.,24.0,0.,24.0
1979-03-07 00:20:29.570 ,5,1,0.,24.0,0.,24.0,0.,24.0,0.,24.0
1979-03-07 00:20:53.570 ,6,1,0.,24.0,0.,24.0,0.,24.0,0.,24.0
1979-03-07 00:21:17.570 ,2,1,0.,24.0,0.,24.0,0.,24.0,0.,24.0
1979-03-07 00:21:41.570 ,1,1,0.,24.0,0.,24.0,0.,24.0,0.,24.0
1979-03-07 00:22:05.570 ,5,1,0.,24.0,0.,24.0,0.,24.0,0.,24.0
1979-03-07 00:22:29.580 ,6,1,0.,24.0,0.,24.0,0.,24.0,0.,24.0
1979-03-07 00:22:53.580 ,2,1,0.,24.0,0.,24.0,0.,24.0,0.,24.0
1979-03-07 00:23:17.580 ,1,1,0.,24.0,0.,24.0,0.,24.0,0.,24.0
1979-03-07 00:23:41.580 ,5,1,0.,24.0,0.,24.0,0.,24.0,0.,24.0
1979-03-07 00:24:05.580 ,6,1,0.,24.0,0.,24.0,0.,24.0,0.,24.0
1979-03-07 00:24:29.580 ,2,1,0.,24.0,0.,24.0,0.,24.0,0.,24.0
1979-03-07 00:24:53.580 ,1,1,0.,24.0,0.,24.0,0.,24.0,0.,24.0
1979-03-07 00:25:17.580 ,5,1,0.,24.0,0.,24.0,0.,24.0,0.,24.0
1979-03-07 00:25:41.580 ,6,1,0.,24.0,0.,24.0,0.,24.0,0.,24.0
1979-03-07 00:26:05.580 ,2,1,0.,24.0,0.,24.0,0.,24.0,0.,24.0
1979-03-07 00:26:29.580 ,1,1,0.,24.0,0.,24.0,0.,24.0,0.,24.0
1979-03-07 00:26:53.580 ,5,1,0.,24.0,0.,24.0,0.,24.0,0.,24.0
1979-03-07 00:27:17.580 ,6,1,0.,24.0,0.,24.0,0.,24.0,0.,24.0
1979-03-07 00:27:41.580 ,2,1,0.,24.0,0.,24.0,0.,24.0,0.,24.0
1979-03-07 00:28:05.580 ,1,1,0.,24.0,0.,24.0,0.,24.0,0.,24.0
1979-03-07 00:28:29.580 ,5,1,0.,24.0,0.,24.0,0.,24.0,0.,24.0
1979-03-07 00:28:53.580 ,6,1,0.,24.0,0.,24.0,0.,24.0,0.,24.0
1979-03-07 00:29:17.580 ,2,1,0.,24.0,0.,24.0,0.,24.0,0.,24.0
1979-03-07 00:29:41.580 ,1,1,0.,24.0,0.,24.0,0.,24.0,0.,24.0
1979-03-07 00:30:05.580 ,5,1,0.,24.0,0.,24.0,0.,24.0,0.,24.0
1979-03-07 00:30:29.580 ,6,1,0.,24.0,0.,24.0,0.,24.0,0.,24.0
1979-03-07 00:30:53.580 ,2,1,0.,24.0,0.,24.0,0.,24.0,0.,24.0
1979-03-07 00:31:17.580 ,1,1,0.,24.0,0.,24.0,0.,24.0,0.,24.0
1979-03-07 00:31:41.580 ,5,1,0.,24.0,0.,24.0,0.,24.0,0.,24.0
1979-03-07 00:32:05.580 ,6,1,0.,24.0,0.,24.0,0.,24.0,0.,24.0
1979-03-07 00:32:29.580 ,2,1,0.,24.0,0.,24.0,0.,24.0,0.,24.0
1979-03-07 00:32:53.580 ,1,1,0.,24.0,0.,24.0,0.,24.0,0.,24.0
1979-03-07 00:33:17.580 ,0,0,0.,24.0,0.,24.0,0.,24.0,0.,24.0
1979-03-07 00:33:41.580 ,6,1,0.,24.0,0.,24.0,0.,24.0,0.,24.0
1979-03-07 00:34:05.580 ,2,1,0.,24.0,0.,24.0,0.,24.0,0.,24.0
1979-03-07 00:34:29.580 ,1,1,0.,24.0,0.,24.0,0.,24.0,0.,24.0
1979-03-07 00:34:53.580 ,5,1,0.,24.0,0.,24.0,0.,24.0,0.,24.0
1979-03-07 00:35:17.580 ,6,1,0.,24.0,0.,24.0,0.,24.0,0.,24.0
1979-03-07 00:35:41.580 ,2,1,0.,24.0,0.,24.0,0.,24.0,0.,24.0
1979-03-07 00:36:05.580 ,1,1,0.,24.0,0.,24.0,0.,24.0,0.,24.0
1979-03-07 00:36:29.580 ,5,1,0.,24.0,0.,24.0,0.,24.0,0.,24.0
1979-03-07 00:36:53.580 ,6,1,0.,24.0,0.,24.0,0.,24.0,0.,24.0
1979-03-07 00:37:17.580 ,2,1,0.,24.0,0.,24.0,0.,24.0,0.,24.0
1979-03-07 00:37:41.580 ,1,1,0.,24.0,0.,24.0,0.,24.0,0.,24.0
1979-03-07 00:38:05.580 ,5,1,0.,24.0,0.,24.0,0.,24.0,0.,24.0
1979-03-07 00:38:29.580 ,6,1,0.,24.0,0.,24.0,0.,24.0,0.,24.0
1979-03-07 00:38:53.580 ,5,1,0.,24.0,0.,24.0,0.,24.0,0.,24.0
1979-03-07 00:39:17.580 ,4,1,0.,24.0,0.,24.0,0.,24.0,0.,24.0
1979-03-07 00:39:41.580 ,3,1,0.,24.0,0.,24.0,0.,24.0,0.,24.0
1979-03-07 00:40:05.580 ,2,1,0.,24.0,0.,24.0,0.,24.0,0.,24.0
1979-03-07 00:40:29.580 ,1,1,0.,24.0,0.,24.0,0.,24.0,0.,24.0
1979-03-07 00:40:53.580 ,0,1,0.,24.0,0.,24.0,0.,24.0,0.,24.0
1979-03-07 00:41:17.580 ,0,1,0.,24.0,0.,24.0,0.,24.0,0.,24.0
1979-03-07 00:41:41.580 ,1,1,0.,24.0,0.,24.0,0.,24.0,0.,24.0
1979-03-07 00:42:05.580 ,2,1,0.,24.0,0.,24.0,0.,24.0,0.,24.0
1979-03-07 00:42:29.580 ,3,1,0.,24.0,0.,24.0,0.,24.0,0.,24.0
1979-03-07 00:42:53.580 ,4,1,0.,24.0,0.,24.0,0.,24.0,0.,24.0
1979-03-07 00:43:17.580 ,5,1,0.,24.0,0.,24.0,0.,24.0,0.,24.0
1979-03-07 00:43:41.580 ,6,1,0.,24.0,0.,24.0,0.,24.0,0.,24.0
1979-03-07 00:44:05.580 ,7,1,0.,24.0,0.,24.0,0.,24.0,0.,24.0
1979-03-07 00:44:29.580 ,7,1,0.,24.0,0.,24.0,0.,24.0,0.,24.0
1979-03-07 00:44:53.580 ,6,1,0.,24.0,0.,24.0,0.,24.0,0.,24.0
1979-03-07 00:45:17.580 ,5,1,0.,24.0,0.,24.0,0.,24.0,0.,24.0
1979-03-07 00:45:41.580 ,4,1,0.,24.0,0.,24.0,0.,24.0,0.,24.0
1979-03-07 00:46:05.580 ,3,1,0.,24.0,0.,24.0,0.,24.0,0.,24.0
1979-03-07 00:46:29.580 ,2,1,0.,24.0,0.,24.0,0.,24.0,0.,24.0
1979-03-07 00:46:53.580 ,1,1,0.,24.0,0.,24.0,0.,24.0,0.,24.0
1979-03-07 00:47:17.580 ,0,1,0.,24.0,0.,24.0,0.,24.0,0.,24.0
1979-03-07 00:47:41.580 ,0,1,0.,24.0,0.,24.0,0.,24.0,0.,24.0
1979-03-07 00:48:05.580 ,1,1,0.,24.0,0.,24.0,0.,24.0,0.,24.0
1979-03-07 00:48:29.580 ,2,1,0.,24.0,0.,24.0,0.,24.0,0.,24.0
1979-03-07 00:48:53.580 ,3,1,0.,24.0,0.,24.0,0.,24.0,0.,24.0
1979-03-07 00:49:17.580 ,4,1,0.,24.0,0.,24.0,0.,24.0,0.,24.0
1979-03-07 00:49:41.580 ,5,1,0.,24.0,0.,24.0,0.,24.0,0.,24.0
1979-03-07 00:50:05.580 ,6,1,0.,24.0,0.,24.0,0.,24.0,0.,24.0
1979-03-07 00:50:29.580 ,7,1,0.,24.0,0.,24.0,0.,24.0,0.,24.0
1979-03-07 00:50:53.580 ,7,1,0.,24.0,0.,24.0,0.,24.0,0.,24.0
1979-03-07 00:51:17.580 ,6,1,0.,24.0,0.,24.0,0.,24.0,0.,24.0
1979-03-07 00:51:41.580 ,5,1,0.,24.0,0.,24.0,0.,24.0,0.,24.0
1979-03-07 00:52:05.580 ,4,1,0.,24.0,0.,24.0,0.,24.0,0.,24.0
1979-03-07 00:52:29.580 ,3,1,0.,24.0,0.,24.0,0.,24.0,0.,24.0
1979-03-07 00:52:53.580 ,2,1,0.,24.0,0.,24.0,0.,24.0,0.,24.0
1979-03-07 00:53:17.580 ,1,1,0.,24.0,0.,24.0,0.,24.0,0.,24.0
1979-03-07 00:53:41.580 ,0,1,0.,24.0,0.,24.0,0.,24.0,0.,24.0
1979-03-07 00:54:05.580 ,0,1,0.,24.0,0.,24.0,0.,24.0,0.,24.0
1979-03-07 00:54:29.580 ,1,1,0.,24.0,0.,24.0,0.,24.0,0.,24.0
1979-03-07 00:54:53.580 ,2,1,0.,24.0,0.,24.0,0.,24.0,0.,24.0
1979-03-07 00:55:17.580 ,3,1,0.,24.0,0.,24.0,0.,24.0,0.,24.0
1979-03-07 00:55:41.580 ,4,1,0.,24.0,0.,24.0,0.,24.0,0.,24.0
1979-03-07 00:56:05.580 ,5,1,0.,24.0,0.,24.0,0.,24.0,0.,24.0
1979-03-07 00:56:29.580 ,6,1,0.,24.0,0.,24.0,0.,24.0,0.,24.0
1979-03-07 00:56:53.580 ,7,1,0.,24.0,0.,24.0,0.,24.0,0.,24.0
1979-03-07 00:57:17.580 ,7,1,0.,24.0,0.,24.0,0.,24.0,0.,24.0
1979-03-07 00:57:41.580 ,6,1,0.,24.0,0.,24.0,0.,24.0,0.,24.0
1979-03-07 00:58:05.580 ,5,1,0.,24.0,0.,24.0,0.,24.0,0.,24.0
1979-03-07 00:58:29.580 ,4,1,0.,24.0,0.,24.0,0.,24.0,0.,24.0
1979-03-07 00:58:53.580 ,3,1,0.,24.0,0.,24.0,0.,24.0,0.,24.0
1979-03-07 00:59:17.580 ,2,1,0.,24.0,0.,24.0,0.,24.0,0.,24.0
1979-03-07 00:59:41.580 ,1,1,0.,24.0,0.,24.0,0.,24.0,0.,24.0
1979-03-07 01:00:05.580 ,0,1,0.,24.0,0.,24.0,0.,24.0,0.,24.0
1979-03-07 01:00:29.580 ,0,1,0.,24.0,0.,24.0,0.,24.0,0.,24.0
1979-03-07 01:00:53.580 ,1,1,0.,24.0,0.,24.0,0.,24.0,0.,24.0
1979-03-07 01:01:17.580 ,2,1,0.,24.0,0.,24.0,0.,24.0,0.,24.0
1979-03-07 01:01:41.580 ,3,1,0.,24.0,0.,24.0,0.,24.0,0.,24.0
1979-03-07 01:02:05.580 ,4,1,0.,24.0,0.,24.0,0.,24.0,0.,24.0
1979-03-07 01:02:29.580 ,5,1,0.,24.0,0.,24.0,0.,24.0,0.,24.0
1979-03-07 01:02:53.580 ,6,1,0.,24.0,0.,24.0,0.,24.0,0.,24.0
1979-03-07 01:03:17.580 ,7,1,0.,24.0,0.,24.0,0.,24.0,0.,24.0
1979-03-07 01:03:41.580 ,7,1,0.,24.0,0.,24.0,0.,24.0,0.,24.0
1979-03-07 01:04:05.580 ,6,1,0.,24.0,0.,24.0,0.,24.0,0.,24.0
1979-03-07 01:04:29.580 ,5,1,0.,24.0,0.,24.0,0.,24.0,0.,24.0
1979-03-07 01:04:53.580 ,4,1,0.,24.0,0.,24.0,0.,24.0,0.,24.0
1979-03-07 01:05:17.580 ,3,1,0.,24.0,0.,24.0,0.,24.0,0.,24.0
1979-03-07 01:05:41.580 ,2,1,0.,24.0,0.,24.0,0.,24.0,0.,24.0
1979-03-07 01:06:05.580 ,1,1,0.,24.0,0.,24.0,0.,24.0,0.,24.0
1979-03-07 01:06:29.580 ,0,1,0.,24.0,0.,24.0,0.,24.0,0.,24.0
1979-03-07 01:06:53.580 ,0,1,0.,24.0,0.,24.0,0.,24.0,0.,24.0
1979-03-07 01:07:17.580 ,1,1,0.,24.0,0.,24.0,0.,24.0,0.,24.0
1979-03-07 01:07:41.580 ,2,1,0.,24.0,0.,24.0,0.,24.0,0.,24.0
1979-03-07 01:08:05.580 ,3,1,0.,24.0,0.,24.0,0.,24.0,0.,24.0
1979-03-07 01:08:29.580 ,4,1,0.,24.0,0.,24.0,0.,24.0,0.,24.0
1979-03-07 01:08:53.580 ,5,1,0.,24.0,0.,24.0,0.,24.0,0.,24.0
1979-03-07 01:09:17.580 ,6,1,0.,24.0,0.,24.0,0.,24.0,0.,24.0
1979-03-07 01:09:41.580 ,7,1,0.,24.0,0.,24.0,0.,24.0,0.,24.0
1979-03-07 01:10:05.580 ,7,1,0.,24.0,0.,24.0,0.,24.0,0.,24.0
1979-03-07 01:10:29.580 ,6,1,0.,24.0,0.,24.0,0.,24.0,0.,24.0
1979-03-07 01:10:53.580 ,5,1,0.,24.0,0.,24.0,0.,24.0,0.,24.0
1979-03-07 01:11:17.580 ,4,1,0.,24.0,0.,24.0,0.,24.0,0.,24.0
1979-03-07 01:11:41.580 ,3,1,0.,24.0,0.,24.0,0.,24.0,0.,24.0
1979-03-07 01:12:05.580 ,2,1,0.,24.0,0.,24.0,0.,24.0,0.,24.0
1979-03-07 01:12:29.580 ,1,1,0.,24.0,0.,24.0,0.,24.0,0.,24.0
1979-03-07 01:12:53.580 ,0,1,0.,24.0,0.,24.0,0.,24.0,0.,24.0
1979-03-07 01:13:17.580 ,0,1,0.,24.0,0.,24.0,0.,24.0,0.,24.0
1979-03-07 01:13:41.580 ,1,1,0.,24.0,0.,24.0,0.,24.0,0.,24.0
1979-03-07 01:14:05.580 ,2,1,0.,24.0,0.,24.0,0.,24.0,0.,24.0
1979-03-07 01:14:29.580 ,3,1,0.,24.0,0.,24.0,0.,24.0,0.,24.0
1979-03-07 01:14:53.580 ,4,1,0.,24.0,0.,24.0,0.,24.0,0.,24.0
1979-03-07 01:15:17.580 ,5,1,0.,24.0,0.,24.0,0.,24.0,0.,24.0
1979-03-07 01:15:41.580 ,6,1,0.,24.0,0.,24.0,0.,24.0,0.,24.0
1979-03-07 01:16:05.580 ,7,1,0.,24.0,0.,24.0,0.,24.0,0.,24.0
1979-03-07 01:16:29.580 ,7,1,0.,24.0,0.,24.0,0.,24.0,0.,24.0
1979-03-07 01:16:53.580 ,6,1,0.,24.0,0.,24.0,0.,24.0,0.,24.0
1979-03-07 01:17:17.580 ,5,1,0.,24.0,0.,24.0,0.,24.0,0.,24.0
1979-03-07 01:17:41.580 ,4,1,0.,24.0,0.,24.0,0.,24.0,0.,24.0
1979-03-07 01:18:05.580 ,3,1,0.,24.0,0.,24.0,0.,24.0,0.,24.0
1979-03-07 01:18:29.580 ,2,1,0.,24.0,0.,24.0,0.,24.0,0.,24.0
1979-03-07 01:18:53.580 ,1,1,0.,24.0,0.,24.0,0.,24.0,0.,24.0
1979-03-07 01:19:17.580 ,0,1,0.,24.0,0.,24.0,0.,24.0,0.,24.0
1979-03-07 01:19:41.580 ,0,1,0.,24.0,0.,24.0,0.,24.0,0.,24.0
1979-03-07 01:20:05.580 ,1,1,0.,24.0,0.,24.0,0.,24.0,0.,24.0
1979-03-07 01:20:29.580 ,2,1,0.,24.0,0.,24.0,0.,24.0,0.,24.0
1979-03-07 01:20:53.580 ,3,1,0.,24.0,0.,24.0,0.,24.0,0.,24.0
1979-03-07 01:21:17.580 ,4,1,0.,24.0,0.,24.0,0.,24.0,0.,24.0
1979-03-07 01:21:41.580 ,5,1,0.,24.0,0.,24.0,0.,24.0,0.,24.0
1979-03-07 01:22:05.580 ,6,1,0.,24.0,0.,24.0,0.,24.0,0.,24.0
1979-03-07 01:22:29.580 ,7,1,0.,24.0,0.,24.0,0.,24.0,0.,24.0
1979-03-07 01:22:53.580 ,7,1,0.,24.0,0.,24.0,0.,24.0,0.,24.0
1979-03-07 01:23:17.580 ,6,1,0.,24.0,0.,24.0,0.,24.0,0.,24.0
1979-03-07 01:23:41.580 ,5,1,0.,24.0,0.,24.0,0.,24.0,0.,24.0
1979-03-07 01:24:05.580 ,4,1,0.,24.0,0.,24.0,0.,24.0,0.,24.0
1979-03-07 01:24:29.580 ,3,1,0.,24.0,0.,24.0,0.,24.0,0.,24.0
1979-03-07 01:24:53.580 ,2,1,0.,24.0,0.,24.0,0.,24.0,0.,24.0
1979-03-07 01:25:17.580 ,1,1,0.,24.0,0.,24.0,0.,24.0,0.,24.0
1979-03-07 01:25:41.580 ,0,1,0.,24.0,0.,24.0,0.,24.0,0.,24.0
1979-03-07 01:26:05.580 ,0,1,0.,24.0,0.,24.0,0.,24.0,0.,24.0
1979-03-07 01:26:29.580 ,1,1,0.,24.0,0.,24.0,0.,24.0,0.,24.0
1979-03-07 01:26:53.580 ,2,1,0.,24.0,0.,24.0,0.,24.0,0.,24.0
1979-03-07 01:27:17.580 ,3,1,0.,24.0,0.,24.0,0.,24.0,0.,24.0
1979-03-07 01:27:41.580 ,4,1,0.,24.0,0.,24.0,0.,24.0,0.,24.0
1979-03-07 01:28:05.580 ,5,1,0.,24.0,0.,24.0,0.,24.0,0.,24.0
1979-03-07 01:28:29.580 ,6,1,0.,24.0,0.,24.0,0.,24.0,0.,24.0
1979-03-07 01:28:53.580 ,7,1,0.,24.0,0.,24.0,0.,24.0,0.,24.0
1979-03-07 01:29:17.580 ,7,1,0.,24.0,0.,24.0,0.,24.0,0.,24.0
1979-03-07 01:29:41.580 ,6,1,0.,24.0,0.,24.0,0.,24.0,0.,24.0
1979-03-07 01:30:05.580 ,5,1,0.,24.0,0.,24.0,0.,24.0,0.,24.0
1979-03-07 01:30:29.580 ,4,1,0.,24.0,0.,24.0,0.,24.0,0.,24.0
1979-03-07 01:30:53.580 ,3,1,0.,24.0,0.,24.0,0.,24.0,0.,24.0
1979-03-07 01:31:17.580 ,2,1,0.,24.0,0.,24.0,0.,24.0,0.,24.0
1979-03-07 01:31:41.580 ,1,1,0.,24.0,0.,24.0,0.,24.0,0.,24.0
1979-03-07 01:32:05.580 ,0,1,0.,24.0,0.,24.0,0.,24.0,0.,24.0
1979-03-07 01:32:29.580 ,0,1,0.,24.0,0.,24.0,0.,24.0,0.,24.0
1979-03-07 01:32:53.580 ,1,1,0.,24.0,0.,24.0,0.,24.0,0.,24.0
1979-03-07 01:33:17.580 ,2,1,0.,24.0,0.,24.0,0.,24.0,0.,24.0
1979-03-07 01:33:41.580 ,3,1,0.,24.0,0.,24.0,0.,24.0,0.,24.0
1979-03-07 01:34:05.580 ,4,1,0.,24.0,0.,24.0,0.,24.0,0.,24.0
1979-03-07 01:34:29.580 ,5,1,0.,24.0,0.,24.0,0.,24.0,0.,24.0
1979-03-07 01:34:53.580 ,6,1,0.,24.0,0.,24.0,0.,24.0,0.,24.0
1979-03-07 01:35:17.580 ,7,1,0.,24.0,0.,24.0,0.,24.0,0.,24.0
1979-03-07 01:35:41.580 ,7,1,0.,24.0,0.,24.0,0.,24.0,0.,24.0
1979-03-07 01:36:05.580 ,6,1,0.,24.0,0.,24.0,0.,24.0,0.,24.0
1979-03-07 01:36:29.580 ,5,1,0.,24.0,0.,24.0,0.,24.0,0.,24.0
1979-03-07 01:36:53.580 ,4,1,0.,24.0,0.,24.0,0.,24.0,0.,24.0
1979-03-07 01:37:17.580 ,4,1,,0,,0,,0,,0
1979-03-07 01:37:17.580 ,3,1,0.,24.0,0.,24.0,0.,24.0,0.,24.0
1979-03-07 01:37:41.580 ,2,1,0.,24.0,0.,24.0,0.,24.0,0.,24.0
1979-03-07 01:38:05.580 ,1,1,0.,24.0,0.,24.0,0.,24.0,0.,24.0
1979-03-07 01:38:29.580 ,0,1,0.,24.0,0.,24.0,0.,24.0,0.,24.0
1979-03-07 01:38:53.580 ,0,1,0.,24.0,0.,24.0,0.,24.0,0.,24.0
1979-03-07 01:39:17.580 ,1,1,0.,24.0,0.,24.0,0.,24.0,0.,24.0
1979-03-07 01:39:41.580 ,2,1,0.,24.0,0.,24.0,0.,24.0,0.,24.0
1979-03-07 01:40:05.580 ,3,1,0.,24.0,0.,24.0,0.,24.0,0.,24.0
1979-03-07 01:40:29.580 ,4,1,0.,24.0,0.,24.0,0.,24.0,0.,24.0
1979-03-07 01:40:53.580 ,5,1,0.,24.0,0.,24.0,0.,24.0,0.,24.0
1979-03-07 01:41:17.580 ,6,1,0.,24.0,0.,24.0,0.,24.0,0.,24.0
1979-03-07 01:41:41.580 ,7,1,0.,24.0,0.,24.0,0.,24.0,0.,24.0
1979-03-07 01:42:05.580 ,7,1,0.,24.0,0.,24.0,0.,24.0,0.,24.0
1979-03-07 01:42:29.580 ,6,1,0.,24.0,0.,24.0,0.,24.0,0.,24.0
1979-03-07 01:42:53.580 ,5,1,0.,24.0,0.,24.0,0.,24.0,0.,24.0
1979-03-07 01:43:17.580 ,4,1,0.,24.0,0.,24.0,0.,24.0,0.,24.0
1979-03-07 01:43:41.580 ,3,1,0.,24.0,0.,24.0,0.,24.0,0.,24.0
1979-03-07 01:44:05.580 ,2,1,0.,24.0,0.,24.0,0.,24.0,0.,24.0
1979-03-07 01:44:29.580 ,1,1,0.,24.0,0.,24.0,0.,24.0,0.,24.0
1979-03-07 01:44:53.580 ,0,1,0.,24.0,0.,24.0,0.,24.0,0.,24.0
1979-03-07 01:45:17.580 ,0,1,0.,24.0,0.,24.0,0.,24.0,0.,24.0
1979-03-07 01:45:41.580 ,1,1,0.,24.0,0.,24.0,0.,24.0,0.,24.0
1979-03-07 01:46:05.580 ,2,1,0.,24.0,0.,24.0,0.,24.0,0.,24.0
1979-03-07 01:46:29.580 ,3,1,0.,24.0,0.,24.0,0.,24.0,0.,24.0
1979-03-07 01:46:53.580 ,4,1,0.,24.0,0.,24.0,0.,24.0,0.,24.0
1979-03-07 01:47:17.580 ,5,1,0.,24.0,0.,24.0,0.,24.0,0.,24.0
1979-03-07 01:47:41.580 ,6,1,0.,24.0,0.,24.0,0.,24.0,0.,24.0
1979-03-07 01:48:05.580 ,7,1,0.,24.0,0.,24.0,0.,24.0,0.,24.0
1979-03-07 01:48:29.580 ,7,1,0.,24.0,0.,24.0,0.,24.0,0.,24.0
1979-03-07 01:48:53.580 ,6,1,0.,24.0,0.,24.0,0.,24.0,0.,24.0
1979-03-07 01:49:17.580 ,5,1,0.,24.0,0.,24.0,0.,24.0,0.,24.0
1979-03-07 01:49:41.580 ,4,1,0.,24.0,0.,24.0,0.,24.0,0.,24.0
1979-03-07 01:50:05.580 ,3,1,0.,24.0,0.,24.0,0.,24.0,0.,24.0
1979-03-07 01:50:29.580 ,2,1,0.,24.0,0.,24.0,0.,24.0,0.,24.0
1979-03-07 01:50:53.580 ,1,1,0.,24.0,0.,24.0,0.,24.0,0.,24.0
1979-03-07 01:51:17.580 ,0,1,0.,24.0,0.,24.0,0.,24.0,0.,24.0
1979-03-07 01:51:41.580 ,0,1,0.,24.0,0.,24.0,0.,24.0,0.,24.0
1979-03-07 01:52:05.580 ,1,1,0.,24.0,0.,24.0,0.,24.0,0.,24.0
1979-03-07 01:52:29.580 ,2,1,0.,24.0,0.,24.0,0.,24.0,0.,24.0
1979-03-07 01:52:53.580 ,3,1,0.,24.0,0.,24.0,0.,24.0,0.,24.0
1979-03-07 01:53:17.580 ,4,1,0.,24.0,0.,24.0,0.,24.0,0.,24.0
1979-03-07 01:53:41.580 ,5,1,0.,24.0,0.,24.0,0.,24.0,0.,24.0
1979-03-07 01:54:05.580 ,6,1,0.,24.0,0.,24.0,0.,24.0,0.,24.0
1979-03-07 01:54:29.590 ,7,1,0.,24.0,0.,24.0,0.,24.0,0.,24.0
1979-03-07 01:54:53.590 ,7,1,0.,24.0,0.,24.0,0.,24.0,0.,24.0
1979-03-07 01:55:17.590 ,6,1,0.,24.0,0.,24.0,0.,24.0,0.,24.0
1979-03-07 01:55:41.590 ,5,1,0.,24.0,0.,24.0,0.,24.0,0.,24.0
1979-03-07 01:56:05.590 ,4,1,0.,24.0,0.,24.0,0.,24.0,0.,24.0
1979-03-07 01:56:29.590 ,3,1,0.,24.0,0.,24.0,0.,24.0,0.,24.0
1979-03-07 01:56:53.590 ,2,1,0.,24.0,0.,24.0,0.,24.0,0.,24.0
1979-03-07 01:57:17.590 ,1,1,0.,24.0,0.,24.0,0.,24.0,0.,24.0
1979-03-07 01:57:41.590 ,0,1,0.,24.0,0.,24.0,0.,24.0,0.,24.0
1979-03-07 01:58:05.590 ,0,1,0.,24.0,0.,24.0,0.,24.0,0.,24.0
1979-03-07 01:58:29.590 ,1,1,0.,24.0,0.,24.0,0.,24.0,0.,24.0
1979-03-07 01:58:53.590 ,2,1,0.,24.0,0.,24.0,0.,24.0,0.,24.0
1979-03-07 01:59:17.590 ,3,1,0.,24.0,0.,24.0,0.,24.0,0.,24.0
1979-03-07 01:59:41.590 ,4,1,0.,24.0,0.,24.0,0.,24.0,0.,24.0
1979-03-07 02:00:05.590 ,5,1,0.,24.0,0.,24.0,0.,24.0,0.,24.0
1979-03-07 02:00:29.590 ,6,1,0.,24.0,0.,24.0,0.,24.0,0.,24.0
1979-03-07 02:00:53.590 ,7,1,0.,24.0,0.,24.0,0.,24.0,0.,24.0
1979-03-07 02:01:17.590 ,7,1,0.,24.0,0.,24.0,0.,24.0,0.,24.0
1979-03-07 02:01:41.590 ,6,1,0.,24.0,0.,24.0,0.,24.0,0.,24.0
1979-03-07 02:02:05.590 ,5,1,0.,24.0,0.,24.0,0.,24.0,0.,24.0
1979-03-07 02:02:29.590 ,4,1,0.,24.0,0.,24.0,0.,24.0,0.,24.0
1979-03-07 02:02:53.590 ,3,1,0.,24.0,0.,24.0,0.,24.0,0.,24.0
1979-03-07 02:03:17.590 ,2,1,0.,24.0,0.,24.0,0.,24.0,0.,24.0
1979-03-07 02:03:41.590 ,1,1,0.,24.0,0.,24.0,0.,24.0,0.,24.0
1979-03-07 02:04:05.590 ,0,1,0.,24.0,0.,24.0,0.,24.0,0.,24.0
1979-03-07 02:04:29.590 ,0,1,0.,24.0,0.,24.0,0.,24.0,0.,24.0
1979-03-07 02:04:53.590 ,1,1,0.,24.0,0.,24.0,0.,24.0,0.,24.0
1979-03-07 02:05:17.590 ,2,1,0.,24.0,0.,24.0,0.,24.0,0.,24.0
1979-03-07 02:05:41.590 ,3,1,0.,24.0,0.,24.0,0.,24.0,0.,24.0
1979-03-07 02:06:05.590 ,4,1,0.,24.0,0.,24.0,0.,24.0,0.,24.0
1979-03-07 02:06:29.590 ,5,1,0.,24.0,0.,24.0,0.,24.0,0.,24.0
1979-03-07 02:06:53.590 ,6,1,0.,24.0,0.,24.0,0.,24.0,0.,24.0
1979-03-07 02:07:17.590 ,7,1,0.,24.0,0.,24.0,0.,24.0,0.,24.0
1979-03-07 02:07:41.590 ,7,1,0.,24.0,0.,24.0,0.,24.0,0.,24.0
1979-03-07 02:08:05.590 ,6,1,0.,24.0,0.,24.0,0.,24.0,0.,24.0
1979-03-07 02:08:29.590 ,5,1,0.,24.0,0.,24.0,0.,24.0,0.,24.0
1979-03-07 02:08:53.590 ,4,1,0.,24.0,0.,24.0,0.,24.0,0.,24.0
1979-03-07 02:09:17.590 ,3,1,0.,24.0,0.,24.0,0.,24.0,0.,24.0
1979-03-07 02:09:41.590 ,2,1,0.,24.0,0.,24.0,0.,24.0,0.,24.0
1979-03-07 02:10:05.590 ,1,1,0.,24.0,0.,24.0,0.,24.0,0.,24.0
1979-03-07 02:10:29.590 ,0,1,0.,24.0,0.,24.0,0.,24.0,0.,24.0
1979-03-07 02:10:53.590 ,0,1,0.,24.0,0.,24.0,0.,24.0,0.,24.0
1979-03-07 02:11:17.590 ,1,1,0.,24.0,0.,24.0,0.,24.0,0.,24.0
1979-03-07 02:11:41.590 ,2,1,0.,24.0,0.,24.0,0.,24.0,0.,24.0
1979-03-07 02:12:05.590 ,3,1,0.,24.0,0.,24.0,0.,24.0,0.,24.0
1979-03-07 02:12:29.590 ,4,1,0.,24.0,0.,24.0,0.,24.0,0.,24.0
1979-03-07 02:12:53.590 ,5,1,0.,24.0,0.,24.0,0.,24.0,0.,24.0
1979-03-07 02:13:17.590 ,6,1,0.,24.0,0.,24.0,0.,24.0,0.,24.0
1979-03-07 02:13:41.590 ,7,1,0.,24.0,0.,24.0,0.,24.0,0.,24.0
1979-03-07 02:14:05.590 ,7,1,0.,24.0,0.,24.0,0.,24.0,0.,24.0
1979-03-07 02:14:29.590 ,6,1,0.,24.0,0.,24.0,0.,24.0,0.,24.0
1979-03-07 02:14:53.590 ,5,1,0.,24.0,0.,24.0,0.,24.0,0.,24.0
1979-03-07 02:15:17.590 ,4,1,0.,24.0,0.,24.0,0.,24.0,0.,24.0
1979-03-07 02:15:41.590 ,3,1,0.,24.0,0.,24.0,0.,24.0,0.,24.0
1979-03-07 02:16:05.590 ,2,1,0.,24.0,0.,24.0,0.,24.0,0.,24.0
1979-03-07 02:16:29.590 ,1,1,0.,24.0,0.,24.0,0.,24.0,0.,24.0
1979-03-07 02:16:53.590 ,0,1,0.,24.0,0.,24.0,0.,24.0,0.,24.0
1979-03-07 02:17:17.590 ,0,1,0.,24.0,0.,24.0,0.,24.0,0.,24.0
1979-03-07 02:17:41.590 ,1,1,0.,24.0,0.,24.0,0.,24.0,0.,24.0
1979-03-07 02:18:05.590 ,2,1,0.,24.0,0.,24.0,0.,24.0,0.,24.0
1979-03-07 02:18:29.590 ,3,1,0.,24.0,0.,24.0,0.,24.0,0.,24.0
1979-03-07 02:18:53.590 ,4,1,0.,24.0,0.,24.0,0.,24.0,0.,24.0
1979-03-07 02:19:17.590 ,5,1,0.,24.0,0.,24.0,0.,24.0,0.,24.0
1979-03-07 02:19:41.590 ,6,1,0.,24.0,0.,24.0,0.,24.0,0.,24.0
1979-03-07 02:20:05.590 ,7,1,0.,24.0,0.,24.0,0.,24.0,0.,24.0
1979-03-07 02:20:29.590 ,7,1,0.,24.0,0.,24.0,0.,24.0,0.,24.0
1979-03-07 02:20:53.590 ,6,1,0.,24.0,0.,24.0,0.,24.0,0.,24.0
1979-03-07 02:21:17.590 ,5,1,0.,24.0,0.,24.0,0.,24.0,0.,24.0
1979-03-07 02:21:41.590 ,4,1,0.,24.0,0.,24.0,0.,24.0,0.,24.0
1979-03-07 02:22:05.590 ,3,1,0.,24.0,0.,24.0,0.,24.0,0.,24.0
1979-03-07 02:22:29.590 ,2,1,0.,24.0,0.,24.0,0.,24.0,0.,24.0
1979-03-07 02:22:53.590 ,1,1,0.,24.0,0.,24.0,0.,24.0,0.,24.0
1979-03-07 02:23:17.590 ,0,1,0.,24.0,0.,24.0,0.,24.0,0.,24.0
1979-03-07 02:23:41.590 ,0,1,0.,24.0,0.,24.0,0.,24.0,0.,24.0
1979-03-07 02:24:05.590 ,1,1,0.,24.0,0.,24.0,0.,24.0,0.,24.0
1979-03-07 02:24:29.590 ,2,1,0.,24.0,0.,24.0,0.,24.0,0.,24.0
1979-03-07 02:24:53.590 ,3,1,0.,24.0,0.,24.0,0.,24.0,0.,24.0
1979-03-07 02:25:17.590 ,4,1,0.,24.0,0.,24.0,0.,24.0,0.,24.0
1979-03-07 02:25:41.590 ,5,1,0.,24.0,0.,24.0,0.,24.0,0.,24.0
1979-03-07 02:26:05.590 ,6,1,0.,24.0,0.,24.0,0.,24.0,0.,24.0
1979-03-07 02:26:29.590 ,7,1,0.,24.0,0.,24.0,0.,24.0,0.,24.0
1979-03-07 02:26:53.590 ,7,1,0.,24.0,0.,24.0,0.,24.0,0.,24.0
1979-03-07 02:27:17.590 ,6,1,0.,24.0,0.,24.0,0.,24.0,0.,24.0
1979-03-07 02:27:41.590 ,5,1,0.,24.0,0.,24.0,0.,24.0,0.,24.0
1979-03-07 02:28:05.590 ,4,1,0.,24.0,0.,24.0,0.,24.0,0.,24.0
1979-03-07 02:28:29.590 ,3,1,0.,24.0,0.,24.0,0.,24.0,0.,24.0
1979-03-07 02:28:53.590 ,2,1,0.,24.0,0.,24.0,0.,24.0,0.,24.0
1979-03-07 02:29:17.590 ,1,1,0.,24.0,0.,24.0,0.,24.0,0.,24.0
1979-03-07 02:29:41.590 ,0,1,0.,24.0,0.,24.0,0.,24.0,0.,24.0
1979-03-07 02:30:05.590 ,0,1,0.,24.0,0.,24.0,0.,24.0,0.,24.0
1979-03-07 02:30:29.590 ,1,1,0.,24.0,0.,24.0,0.,24.0,0.,24.0
1979-03-07 02:30:53.590 ,2,1,0.,24.0,0.,24.0,0.,24.0,0.,24.0
1979-03-07 02:31:17.590 ,3,1,0.,24.0,0.,24.0,0.,24.0,0.,24.0
1979-03-07 02:31:41.590 ,4,1,0.,24.0,0.,24.0,0.,24.0,0.,24.0
1979-03-07 02:32:05.590 ,5,1,0.,24.0,0.,24.0,0.,24.0,0.,24.0
1979-03-07 02:32:29.590 ,6,1,0.,24.0,0.,24.0,0.,24.0,0.,24.0
1979-03-07 02:32:53.590 ,7,1,0.,24.0,0.,24.0,0.,24.0,0.,24.0
1979-03-07 02:33:17.590 ,7,1,0.,24.0,0.,24.0,0.,24.0,0.,24.0
1979-03-07 02:33:41.590 ,6,1,0.,24.0,0.,24.0,0.,24.0,0.,24.0
1979-03-07 02:34:05.590 ,5,1,0.,24.0,0.,24.0,0.,24.0,0.,24.0